Location: *
(60.1759°S, 155.0663°W)
Time: 02:55:38
(UTC+00:00)

Cosmos 2237 Rocket - Pass Details

Date: 17 September 2019
Orbit: 833 x 852 km, 71.0° (Epoch: 22 October)

Event Time Altitude Azimuth Distance (km) Brightness Sun altitude
Rises 15:34:25 0° 231° (SW) 3,433 5.0 -6.9°
Reaches altitude 10° 15:37:05 10° 222° (SW) 2,493 4.3 -6.6°
Maximum altitude 15:42:24 38° 154° (SSE) 1,288 3.5 -5.9°
Drops below altitude 10° 15:47:40 10° 86° (E) 2,475 6.4 -5.3°
Sets 15:50:18 0° 78° (ENE) 3,405 7.2 -4.9°
